SCP
0 0 0 0 0 0 0 0 0 -0 0 0 0 0 0 0 1 0 0 1 1 1 2 2 1 1 1 1 0 0 0 0 1 1 1 1 0 0 1 1 1 1 0 0
0 -0 -0 0 0 -0 0 0 0 0 0 0 1 0 0 0 1 2 0 0 1 1 1 1 1 1 0 0 0 0 0 0 0 1 1 0 0 0 1 1 1 1 1 1
0 0 0 0 0 0 0 0 0 0 0 0 0 0 0 0 0 1 2 2 1 1 1 1 0 0 0 0 0 0 0 0 1 1 0 0 0 0 0 1 1 1 1 0
0 0 0 0 0 0 0 0 0 0 0 0 0 -0 -0 0 0 0 1 0 0 0 0 1 0 0 0 0 0 1 0 0 0 0 0 0 0 0 0 0 1 0 0 0
0 0 0 0 0 0 0 0 0 0 -0 0 1 1 1 1 0 0 0 0 0 0 0 0 0 0 1 0 0 0 0 0 0 0 0 0 0 0 0 0 0 0 0 0
0 0 0 0 0 0 0 0 0 0 -0 0 1 1 1 0 0 0 0 0 0 0 0 0 0 0 0 0 0 0 0 0 0 0 0 0 0 0 0 0 0 0 0 0
0 0 -0 -0 0 0 0 1 0 0 0 -0 -0 0 0 0 0 0 0 0 0 0 0 0 0 0 0 0 0 0 0 0 0 0 0 0 0 0 0 0 0 0 0 0
0 0 0 0 0 0 0 0 0 0 0 0 1 1 0 0 0 0 0 0 0 0 0 0 0 0 0 0 0 0 0 0 0 0 0 0 0 0 0 0 0 0 0 0
-0 0 0 0 0 0 0 0 0 0 -0 0 0 0 0 0 0 0 0 0 0 0 0 0 0 0 0 0 0 0 0 0 0 0 0 0 0 0 0 0 0 0 -0 0
0 0 0 0 0 0 0 0 0 0 1 0 0 0 0 0 0 0 0 0 0 0 0 0 0 0 0 0 0 0 0 0 0 0 0 0 0 0 0 0 0 0 0 0
0 0 0 0 0 0 0 0 0 0 1 1 0 0 0 0 0 0 0 0 0 0 0 0 0 0 0 0 0 0 0 0 0 0 0 0 0 0 0 0 0 0 0 0
0 0 0 0 0 0 0 0 0 0 0 0 0 0 0 0 0 0 0 0 0 0 0 0 0 0 0 0 0 0 0 0 0 0 0 0 0 0 0 0 0 0 0 0
0 0 0 0 0 0 0 0 0 0 0 0 0 0 0 0 0 0 0 0 0 0 0 0 0 0 0 0 0 0 0 0 0 0 0 0 0 0 0 0 0 0 0 0
0 0 0 0 0 0 0 0 0 0 0 0 0 0 0 0 0 0 0 0 0 0 0 0 0 0 0 0 0 0 0 0 0 0 0 0 0 0 0 0 0 0 0 0
0 0 0 0 0 0 0 0 0 0 0 0 0 0 0 0 0 0 0 0 0 0 0 0 0 0 0 0 0 0 0 0 0 0 0 0 0 0 0 0 0 0 0 0
0 0 0 0 0 0 0 0 0 0 0 0 0 0 0 0 0 0 0 0 0 0 0 0 0 0 0 0 0 0 0 0 0 0 0 0 0 0 0 0 0 0 0 0
0 0 0 0 0 0 0 0 0 -0 0 0 0 0 0 0 0 0 0 0 0 0 0 0 0 0 0 0 0 0 0 0 0 0 0 0 0 0 0 0 0 0 0 0
0 0 0 0 0 0 0 0 0 0 0 0 0 0 0 0 0 0 0 0 0 0 0 0 0 0 0 0 0 0 0 0 0 0 0 0 0 0 0 0 0 0 0 0
0 0 0 0 0 0 0 0 0 0 0 0 0 0 0 0 0 0 0 0 0 0 0 0 0 0 0 0 0 0 0 0 0 0 0 0 0 0 0 0 0 0 0 0
0 0 0 0 0 0 0 0 0 0 0 0 0 0 0 0 0 0 0 0 0 0 0 0 0 0 0 0 0 0 0 0 0 0 0 0 0 0 0 0 0 0 0 0
0 0 0 0 0 0 0 0 0 0 0 0 0 0 0 0 0 0 0 0 0 0 0 0 0 0 0 0 0 0 0 0 0 0 0 0 0 0 0 0 0 0 0 0
0 0 0 0 0 0 0 0 0 0 0 0 0 0 0 0 0 0 0 0 0 0 0 0 0 0 0 0 0 0 0 0 0 0 0 0 0 0 0 0 0 0 0 0
0 0 0 0 0 0 0 0 0 0 0 0 0 0 0 0 0 0 0 0 0 0 0 0 0 0 0 0 0 0 0 0 0 0 0 0 0 0 0 0 0 0 0 0
0 0 0 0 0 0 0 0 0 0 0 0 0 0 0 0 0 0 0 0 0 0 0 0 0 0 0 0 0 0 0 0 0 0 0 0 0 0 0 0 0 0 0 0
0 0 0 0 0 0 0 0 0 0 0 0 0 0 0 0 0 0 0 0 0 0 0 0 0 0 0 0 0 0 0 0 0 0 0 0 0 0 0 0 0 0 0 0
0 0 0 0 0 0 0 0 0 0 0 0 0 0 0 0 0 0 0 0 0 0 0 0 0 0 0 0 0 0 0 0 0 0 0 0 0 0 0 0 0 0 0 0
0 0 0 0 0 0 0 0 0 -0 0 0 0 0 0 0 0 0 0 0 0 0 0 0 0 0 0 0 0 0 0 0 0 0 0 0 0 0 0 0 0 0 0 0
Wind_Speed_500mb
8 22 21 31 40 39 36 32 33 26 10 18 17 21 22 25 35 75 70 60 76 46 53 59 64 50 59 58 49 37 28 30 39 46 43 39 40 44 38 35 31 28 24 19
28 19 24 30 37 43 37 40 33 33 16 32 27 40 77 16 18 42 52 51 51 49 37 46 47 43 35 42 42 34 48 39 39 40 47 53 51 39 43 44 31 27 20 21
26 14 29 18 20 28 31 18 10 25 19 18 20 37 6 15 10 21 30 30 35 37 29 33 40 46 53 53 45 42 35 35 36 35 49 69 64 58 42 39 32 35 38 39
15 20 21 18 33 35 39 41 37 49 34 35 32 47 35 24 15 8 30 29 25 30 39 32 29 27 29 35 35 27 24 24 24 22 28 35 43 46 42 44 35 34 35 30
2 7 34 2 16 23 28 37 31 34 30 24 34 28 14 17 23 25 26 26 25 32 31 38 39 38 40 38 38 36 29 20 18 15 14 15 16 17 33 22 30 13 5 1
2 11 2 25 29 44 39 12 47 23 36 20 17 3 6 17 28 26 19 22 29 29 30 31 41 47 44 39 37 33 30 21 18 15 12 10 8 19 29 27 22 25 24 25
23 7 7 18 36 27 14 14 32 39 11 27 17 7 26 33 29 20 17 27 26 29 33 39 47 49 38 31 30 32 29 29 29 22 23 21 19 23 21 20 22 23 23 22
12 8 5 26 31 1 3 8 18 28 17 10 37 35 33 31 20 18 25 29 26 27 28 26 27 30 32 30 27 28 31 33 33 32 27 20 24 25 26 25 16 14 13 13
14 6 9 15 21 15 16 12 15 18 5 26 22 29 23 26 19 27 32 34 36 39 40 33 28 25 36 36 34 34 33 32 32 32 29 20 19 13 17 20 20 19 16 9
15 20 21 18 13 12 13 14 15 15 23 18 29 25 28 21 36 37 36 40 38 39 37 36 30 28 27 29 27 26 24 23 26 27 28 31 31 24 25 26 23 19 21 12
13 12 15 10 12 8 9 12 15 13 13 12 26 27 34 43 39 38 36 32 32 31 29 29 24 23 23 21 20 19 20 18 16 16 22 28 27 27 28 28 30 26 28 23
6 15 9 12 7 2 5 8 11 10 14 10 19 24 31 48 43 40 40 39 38 33 29 26 22 22 21 22 18 18 16 16 15 9 13 25 31 25 23 30 30 26 24 18
8 5 1 7 2 3 6 7 5 3 11 13 15 18 31 37 36 42 37 33 33 32 30 27 24 21 20 25 31 25 19 25 25 14 14 8 13 20 18 22 27 27 22 16
9 9 10 16 12 10 7 5 4 7 18 22 15 18 27 41 44 44 39 32 29 28 25 21 19 17 20 19 28 25 29 30 33 18 11 8 5 4 8 12 11 13 13 11
11 11 17 1 7 8 9 13 13 13 27 25 21 17 35 46 44 38 32 31 24 17 11 9 5 5 7 11 17 18 23 27 23 25 27 25 21 12 6 10 3 3 8 7
15 14 12 14 14 15 14 16 17 18 24 27 25 23 30 40 37 36 39 42 38 31 29 24 16 18 18 21 23 29 28 28 29 19 26 22 21 25 20 17 13 5 7 3
15 14 13 14 15 15 17 17 20 20 20 32 24 29 44 42 35 38 40 39 30 24 26 24 21 20 21 23 22 16 21 31 33 22 20 15 11 21 24 20 19 16 21 23
13 9 10 14 14 15 17 17 18 22 15 25 27 36 40 42 42 37 34 36 32 26 26 24 25 22 19 22 25 22 20 15 23 23 18 25 23 24 19 20 20 20 29 20
17 14 13 14 14 15 15 12 14 16 20 15 16 20 34 29 31 33 37 42 41 37 33 30 30 26 22 22 26 27 19 19 18 25 20 19 20 19 22 21 22 23 25 24
19 15 13 13 12 12 13 9 8 11 8 6 12 12 12 10 24 24 28 35 42 35 31 36 29 32 30 25 26 28 28 26 24 21 24 26 28 31 32 31 30 28 29 21
21 18 14 14 13 14 14 12 10 11 7 5 1 6 8 11 12 11 22 29 34 37 33 36 36 29 34 35 34 32 28 27 30 32 32 33 36 33 31 34 34 38 31 31
24 21 18 17 17 14 13 12 16 18 11 13 3 2 4 9 12 13 15 17 17 25 35 34 34 39 37 40 39 36 36 41 47 45 45 44 42 39 41 39 37 38 39 43
28 24 22 21 22 25 18 14 17 15 14 10 9 13 16 16 7 10 14 18 24 19 19 25 28 34 39 43 44 48 46 45 41 42 53 58 54 51 44 43 41 44 41 41
31 28 26 24 22 28 22 18 14 17 17 14 13 9 10 13 16 18 23 31 24 22 20 15 11 17 23 34 43 45 46 52 56 55 51 48 59 67 66 66 58 50 45 48
34 32 30 28 29 23 21 26 25 23 16 16 12 15 19 15 15 15 5 5 3 5 11 20 28 32 36 34 37 42 46 48 47 47 53 59 61 66 57 62 69 70 64 65
38 38 36 36 34 34 30 25 26 31 32 20 21 18 12 9 12 9 13 13 8 9 1 8 6 11 17 23 29 34 35 40 34 39 49 52 54 56 65 70 67 59 71 69
37 39 36 38 35 32 32 25 32 24 25 24 16 19 15 13 13 12 9 13 8 9 5 4 0 11 12 7 12 24 32 36 37 44 40 41 47 50 53 52 57 57 54 57
Wind_Direction_500mb
278 299 285 284 294 304 249 256 248 267 132 171 173 169 186 175 153 165 186 175 185 188 161 155 171 178 176 190 195 186 190 214 220 221 218 223 230 232 227 234 235 225 213 230
286 261 246 271 251 287 244 245 258 272 285 160 110 80 357 156 121 121 174 182 176 187 181 186 186 183 170 188 206 219 222 241 241 233 232 227 235 231 216 221 220 225 214 229
299 358 339 263 297 285 293 252 286 284 96 91 64 84 295 312 188 114 129 130 154 167 173 186 196 199 199 214 216 220 230 243 247 249 237 237 238 240 207 209 202 214 212 218
282 358 252 24 10 18 357 17 6 46 62 88 123 152 169 187 198 142 145 156 147 132 163 174 187 187 183 194 208 213 210 223 230 227 235 231 220 214 205 201 196 206 218 226
62 338 295 226 24 13 6 327 8 37 81 92 100 98 87 152 165 158 142 145 167 184 152 174 164 173 182 193 184 174 184 188 193 199 200 209 219 177 156 145 153 164 130 64
318 297 293 318 319 317 339 53 346 35 82 40 359 113 159 137 128 121 134 156 156 159 177 178 155 160 170 173 189 186 183 187 191 194 197 223 223 224 232 216 218 241 254 260
277 151 90 264 314 351 67 354 339 360 84 148 162 300 143 134 134 145 157 143 151 160 166 168 178 185 180 173 167 173 192 202 199 205 215 215 191 196 210 202 200 208 219 218
348 318 117 190 45 22 338 298 333 346 25 110 105 132 130 139 148 152 138 133 140 149 151 162 174 178 174 175 174 179 183 192 179 159 149 163 184 197 211 212 203 191 196 196
143 246 127 74 95 82 16 21 345 342 36 104 115 128 137 137 143 136 131 130 134 134 125 122 130 156 163 150 151 158 161 163 168 163 162 163 175 190 160 145 140 121 102 104
323 134 130 107 102 65 32 20 345 5 9 103 125 132 137 132 124 118 117 122 123 123 122 119 118 116 121 121 122 125 137 144 139 138 143 125 120 131 149 142 130 149 161 176
293 187 138 162 92 30 26 9 5 28 42 93 134 133 146 137 135 135 130 126 123 121 123 123 124 130 130 130 134 132 128 131 126 147 159 158 176 178 183 178 168 167 183 193
337 78 118 114 118 60 348 354 349 8 56 80 139 141 166 156 155 155 145 141 137 128 124 119 122 128 136 135 122 129 138 134 126 175 228 202 203 208 202 203 200 202 219 240
38 134 124 100 157 274 298 304 350 345 113 108 138 164 171 167 162 152 146 140 132 121 121 120 116 114 127 145 141 149 171 151 158 160 186 244 197 199 201 196 208 222 230 225
258 227 241 257 266 213 248 269 282 311 139 139 163 170 176 166 157 148 147 149 139 126 118 111 112 121 123 134 156 166 179 175 146 144 175 195 175 155 150 153 176 181 176 171
233 229 252 126 208 258 249 262 235 234 167 152 157 172 179 173 165 165 160 161 158 149 140 106 128 122 145 153 174 172 154 158 149 172 177 182 173 167 148 130 206 166 144 163
218 221 234 247 245 252 250 256 251 264 179 170 171 181 179 186 178 179 178 178 188 202 197 197 198 212 221 213 208 176 175 178 162 185 196 182 175 153 167 174 182 200 93 293
200 199 220 241 250 250 249 252 254 247 206 170 183 192 179 180 195 198 200 205 209 210 211 213 221 230 227 221 212 205 205 196 189 179 193 173 199 190 172 176 181 187 212 221
216 236 248 253 252 237 238 243 250 260 258 205 195 191 198 189 190 202 206 203 206 203 220 224 220 228 219 209 188 195 198 217 219 208 208 195 197 189 193 204 208 204 220 252
208 221 235 233 232 234 236 231 239 244 238 207 183 194 212 206 204 218 219 211 213 205 216 223 223 224 222 217 203 191 206 225 227 205 194 216 223 205 222 226 214 217 238 250
203 215 218 216 218 216 206 211 219 218 220 241 228 218 202 222 228 216 219 217 208 212 224 233 227 221 221 217 209 201 206 217 224 235 221 214 230 226 218 220 221 222 223 239
202 203 207 200 199 195 196 187 195 178 149 155 115 226 236 254 234 214 228 228 226 213 228 220 227 242 228 224 219 216 216 225 227 226 230 231 224 232 234 229 236 234 222 230
199 200 198 195 190 193 192 193 213 210 201 219 152 61 224 246 236 244 238 235 251 233 232 236 229 237 226 226 232 240 231 238 229 227 233 238 239 238 234 235 235 238 240 238
202 200 198 200 203 181 184 175 167 179 187 208 248 269 254 254 236 224 236 233 245 236 220 234 237 234 237 239 236 240 249 244 246 247 241 239 238 239 233 234 241 244 243 245
203 200 199 203 204 180 186 197 186 197 214 248 209 244 262 266 263 254 253 241 244 258 235 256 221 231 233 241 246 248 252 248 248 243 246 245 242 241 243 250 240 231 244 243
202 202 200 206 208 186 197 218 230 228 201 219 229 219 254 251 244 258 19 90 264 261 262 268 272 272 269 257 252 259 267 271 269 266 262 258 254 246 238 246 245 240 238 249
203 206 207 203 210 213 207 204 215 215 210 217 210 226 233 224 218 246 267 238 271 305 233 268 250 269 269 271 263 260 259 255 262 270 265 261 257 253 249 254 257 253 254 254
210 212 214 202 207 222 229 209 209 222 201 209 230 236 226 234 228 215 245 250 232 204 189 258 196 11 5 325 290 268 269 265 264 266 270 262 258 256 254 252 252 254 252 255
Wind_Speed_850mb
8 22 21 31 40 39 36 32 33 26 10 18 17 21 22 25 35 75 70 60 76 46 53 59 64 50 59 58 49 37 28 30 39 46 43 39 40 44 38 35 31 28 24 19
28 19 24 30 37 43 37 40 33 33 16 32 27 40 77 16 18 42 52 51 51 49 37 46 47 43 35 42 42 34 48 39 39 40 47 53 51 39 43 44 31 27 20 21
26 14 29 18 20 28 31 18 10 25 19 18 20 37 6 15 10 21 30 30 35 37 29 33 40 46 53 53 45 42 35 35 36 35 49 69 64 58 42 39 32 35 38 39
15 20 21 18 33 35 39 41 37 49 34 35 32 47 35 24 15 8 30 29 25 30 39 32 29 27 29 35 35 27 24 24 24 22 28 35 43 46 42 44 35 34 35 30
2 7 34 2 16 23 28 37 31 34 30 24 34 28 14 17 23 25 26 26 25 32 31 38 39 38 40 38 38 36 29 20 18 15 14 15 16 17 33 22 30 13 5 1
2 11 2 25 29 44 39 12 47 23 36 20 17 3 6 17 28 26 19 22 29 29 30 31 41 47 44 39 37 33 30 21 18 15 12 10 8 19 29 27 22 25 24 25
23 7 7 18 36 27 14 14 32 39 11 27 17 7 26 33 29 20 17 27 26 29 33 39 47 49 38 31 30 32 29 29 29 22 23 21 19 23 21 20 22 23 23 22
12 8 5 26 31 1 3 8 18 28 17 10 37 35 33 31 20 18 25 29 26 27 28 26 27 30 32 30 27 28 31 33 33 32 27 20 24 25 26 25 16 14 13 13
14 6 9 15 21 15 16 12 15 18 5 26 22 29 23 26 19 27 32 34 36 39 40 33 28 25 36 36 34 34 33 32 32 32 29 20 19 13 17 20 20 19 16 9
15 20 21 18 13 12 13 14 15 15 23 18 29 25 28 21 36 37 36 40 38 39 37 36 30 28 27 29 27 26 24 23 26 27 28 31 31 24 25 26 23 19 21 12
13 12 15 10 12 8 9 12 15 13 13 12 26 27 34 43 39 38 36 32 32 31 29 29 24 23 23 21 20 19 20 18 16 16 22 28 27 27 28 28 30 26 28 23
6 15 9 12 7 2 5 8 11 10 14 10 19 24 31 48 43 40 40 39 38 33 29 26 22 22 21 22 18 18 16 16 15 9 13 25 31 25 23 30 30 26 24 18
8 5 1 7 2 3 6 7 5 3 11 13 15 18 31 37 36 42 37 33 33 32 30 27 24 21 20 25 31 25 19 25 25 14 14 8 13 20 18 22 27 27 22 16
9 9 10 16 12 10 7 5 4 7 18 22 15 18 27 41 44 44 39 32 29 28 25 21 19 17 20 19 28 25 29 30 33 18 11 8 5 4 8 12 11 13 13 11
11 11 17 1 7 8 9 13 13 13 27 25 21 17 35 46 44 38 32 31 24 17 11 9 5 5 7 11 17 18 23 27 23 25 27 25 21 12 6 10 3 3 8 7
15 14 12 14 14 15 14 16 17 18 24 27 25 23 30 40 37 36 39 42 38 31 29 24 16 18 18 21 23 29 28 28 29 19 26 22 21 25 20 17 13 5 7 3
15 14 13 14 15 15 17 17 20 20 20 32 24 29 44 42 35 38 40 39 30 24 26 24 21 20 21 23 22 16 21 31 33 22 20 15 11 21 24 20 19 16 21 23
13 9 10 14 14 15 17 17 18 22 15 25 27 36 40 42 42 37 34 36 32 26 26 24 25 22 19 22 25 22 20 15 23 23 18 25 23 24 19 20 20 20 29 20
17 14 13 14 14 15 15 12 14 16 20 15 16 20 34 29 31 33 37 42 41 37 33 30 30 26 22 22 26 27 19 19 18 25 20 19 20 19 22 21 22 23 25 24
19 15 13 13 12 12 13 9 8 11 8 6 12 12 12 10 24 24 28 35 42 35 31 36 29 32 30 25 26 28 28 26 24 21 24 26 28 31 32 31 30 28 29 21
21 18 14 14 13 14 14 12 10 11 7 5 1 6 8 11 12 11 22 29 34 37 33 36 36 29 34 35 34 32 28 27 30 32 32 33 36 33 31 34 34 38 31 31
24 21 18 17 17 14 13 12 16 18 11 13 3 2 4 9 12 13 15 17 17 25 35 34 34 39 37 40 39 36 36 41 47 45 45 44 42 39 41 39 37 38 39 43
28 24 22 21 22 25 18 14 17 15 14 10 9 13 16 16 7 10 14 18 24 19 19 25 28 34 39 43 44 48 46 45 41 42 53 58 54 51 44 43 41 44 41 41
31 28 26 24 22 28 22 18 14 17 17 14 13 9 10 13 16 18 23 31 24 22 20 15 11 17 23 34 43 45 46 52 56 55 51 48 59 67 66 66 58 50 45 48
34 32 30 28 29 23 21 26 25 23 16 16 12 15 19 15 15 15 5 5 3 5 11 20 28 32 36 34 37 42 46 48 47 47 53 59 61 66 57 62 69 70 64 65
38 38 36 36 34 34 30 25 26 31 32 20 21 18 12 9 12 9 13 13 8 9 1 8 6 11 17 23 29 34 35 40 34 39 49 52 54 56 65 70 67 59 71 69
37 39 36 38 35 32 32 25 32 24 25 24 16 19 15 13 13 12 9 13 8 9 5 4 0 11 12 7 12 24 32 36 37 44 40 41 47 50 53 52 57 57 54 57
Wind_Direction_850mb
278 299 285 284 294 304 249 256 248 267 132 171 173 169 186 175 153 165 186 175 185 188 161 155 171 178 176 190 195 186 190 214 220 221 218 223 230 232 227 234 235 225 213 230
286 261 246 271 251 287 244 245 258 272 285 160 110 80 357 156 121 121 174 182 176 187 181 186 186 183 170 188 206 219 222 241 241 233 232 227 235 231 216 221 220 225 214 229
299 358 339 263 297 285 293 252 286 284 96 91 64 84 295 312 188 114 129 130 154 167 173 186 196 199 199 214 216 220 230 243 247 249 237 237 238 240 207 209 202 214 212 218
282 358 252 24 10 18 357 17 6 46 62 88 123 152 169 187 198 142 145 156 147 132 163 174 187 187 183 194 208 213 210 223 230 227 235 231 220 214 205 201 196 206 218 226
62 338 295 226 24 13 6 327 8 37 81 92 100 98 87 152 165 158 142 145 167 184 152 174 164 173 182 193 184 174 184 188 193 199 200 209 219 177 156 145 153 164 130 64
318 297 293 318 319 317 339 53 346 35 82 40 359 113 159 137 128 121 134 156 156 159 177 178 155 160 170 173 189 186 183 187 191 194 197 223 223 224 232 216 218 241 254 260
277 151 90 264 314 351 67 354 339 360 84 148 162 300 143 134 134 145 157 143 151 160 166 168 178 185 180 173 167 173 192 202 199 205 215 215 191 196 210 202 200 208 219 218
348 318 117 190 45 22 338 298 333 346 25 110 105 132 130 139 148 152 138 133 140 149 151 162 174 178 174 175 174 179 183 192 179 159 149 163 184 197 211 212 203 191 196 196
143 246 127 74 95 82 16 21 345 342 36 104 115 128 137 137 143 136 131 130 134 134 125 122 130 156 163 150 151 158 161 163 168 163 162 163 175 190 160 145 140 121 102 104
323 134 130 107 102 65 32 20 345 5 9 103 125 132 137 132 124 118 117 122 123 123 122 119 118 116 121 121 122 125 137 144 139 138 143 125 120 131 149 142 130 149 161 176
293 187 138 162 92 30 26 9 5 28 42 93 134 133 146 137 135 135 130 126 123 121 123 123 124 130 130 130 134 132 128 131 126 147 159 158 176 178 183 178 168 167 183 193
337 78 118 114 118 60 348 354 349 8 56 80 139 141 166 156 155 155 145 141 137 128 124 119 122 128 136 135 122 129 138 134 126 175 228 202 203 208 202 203 200 202 219 240
38 134 124 100 157 274 298 304 350 345 113 108 138 164 171 167 162 152 146 140 132 121 121 120 116 114 127 145 141 149 171 151 158 160 186 244 197 199 201 196 208 222 230 225
258 227 241 257 266 213 248 269 282 311 139 139 163 170 176 166 157 148 147 149 139 126 118 111 112 121 123 134 156 166 179 175 146 144 175 195 175 155 150 153 176 181 176 171
233 229 252 126 208 258 249 262 235 234 167 152 157 172 179 173 165 165 160 161 158 149 140 106 128 122 145 153 174 172 154 158 149 172 177 182 173 167 148 130 206 166 144 163
218 221 234 247 245 252 250 256 251 264 179 170 171 181 179 186 178 179 178 178 188 202 197 197 198 212 221 213 208 176 175 178 162 185 196 182 175 153 167 174 182 200 93 293
200 199 220 241 250 250 249 252 254 247 206 170 183 192 179 180 195 198 200 205 209 210 211 213 221 230 227 221 212 205 205 196 189 179 193 173 199 190 172 176 181 187 212 221
216 236 248 253 252 237 238 243 250 260 258 205 195 191 198 189 190 202 206 203 206 203 220 224 220 228 219 209 188 195 198 217 219 208 208 195 197 189 193 204 208 204 220 252
208 221 235 233 232 234 236 231 239 244 238 207 183 194 212 206 204 218 219 211 213 205 216 223 223 224 222 217 203 191 206 225 227 205 194 216 223 205 222 226 214 217 238 250
203 215 218 216 218 216 206 211 219 218 220 241 228 218 202 222 228 216 219 217 208 212 224 233 227 221 221 217 209 201 206 217 224 235 221 214 230 226 218 220 221 222 223 239
202 203 207 200 199 195 196 187 195 178 149 155 115 226 236 254 234 214 228 228 226 213 228 220 227 242 228 224 219 216 216 225 227 226 230 231 224 232 234 229 236 234 222 230
199 200 198 195 190 193 192 193 213 210 201 219 152 61 224 246 236 244 238 235 251 233 232 236 229 237 226 226 232 240 231 238 229 227 233 238 239 238 234 235 235 238 240 238
202 200 198 200 203 181 184 175 167 179 187 208 248 269 254 254 236 224 236 233 245 236 220 234 237 234 237 239 236 240 249 244 246 247 241 239 238 239 233 234 241 244 243 245
203 200 199 203 204 180 186 197 186 197 214 248 209 244 262 266 263 254 253 241 244 258 235 256 221 231 233 241 246 248 252 248 248 243 246 245 242 241 243 250 240 231 244 243
202 202 200 206 208 186 197 218 230 228 201 219 229 219 254 251 244 258 19 90 264 261 262 268 272 272 269 257 252 259 267 271 269 266 262 258 254 246 238 246 245 240 238 249
203 206 207 203 210 213 207 204 215 215 210 217 210 226 233 224 218 246 267 238 271 305 233 268 250 269 269 271 263 260 259 255 262 270 265 261 257 253 249 254 257 253 254 254
210 212 214 202 207 222 229 209 209 222 201 209 230 236 226 234 228 215 245 250 232 204 189 258 196 11 5 325 290 268 269 265 264 266 270 262 258 256 254 252 252 254 252 255